www.pogodaiklimat.ru

Погода и климат >> Архив погоды >> Украина >> Харьков


АРХИВ ПОГОДЫ в Харькове

Время (UTC), дата Ветер
(напр.,м/с)
 
Видим.   Явления Облачность Т
(С)
Тd
(С)
f
(%)
Тe
(С)
Тes
(С)
Комфортность P
(гПа)
Po
(гПа)
Тmin
(С)
Tmax
(С)
R
(мм)
R24
(мм)
S
(см)
00 13.06 С 4 10 км 6/0
[Ac trans]
+23.3 +14.9 59 +27 +27 душно 1014.3 996.5
03 13.06 С 4 10 км 4/0
[Ac trans Ci fib]
+22.8 +15.3 63 +27 +27 душно 1014.7 996.9
06 13.06 СВ 4 10 км 3/0
[Ci fib]
+27.8 +16.4 50 +31 +37 душно 1015.3 997.8 +21.9
09 13.06 СВ 6 10 км 5/3 1000 м
[Cu med, cong Ci fib]
+31.2 +15.0 37 +33 +38 жарко 1015.6 998.2
12 13.06 СВ 7 10 км 5/4 1000 м
[Cu med, cong Ci fib]
+31.0 +14.7 37 +33 +35 душно 1015.9 998.5
15 13.06 СВ 7 10 км 4/0
[Ac trans Ci fib]
+28.6 +15.8 46 +32 +32 душно 1016.2 998.7
18 13.06 СВ 6 10 км 4/0
[Ci fib]
+24.9 +15.5 56 +28 +28 жарко 1018.1 1000.3 +31.6
21 13.06 СВ 7 10 км 3/0
[Ci fib]
+21.7 +13.0 58 +24 +24 комфорт 1019.1 1001.1
00 14.06 СВ 4 10 км 3/0
[Ci fib]
+18.9 +9.7 55 +19 +19 тепло 1020.6 1002.4
03 14.06 В 3 10 км 3/0
[Ci fib]
+17.2 +7.2 52 +17 +18 по сезону 1020.6 1002.3
06 14.06 СВ 3 10 км ясно +21.7 +9.2 45 +23 +31 комфорт 1020.7 1002.7 +16.7
09 14.06 В 2 10 км ясно +26.2 +12.2 42 +28 +45 жарко 1020.0 1002.3
12 14.06 Ю 2 10 км ясно +27.8 +11.2 36 +29 +42 жарко 1018.8 1001.2
15 14.06 В 2 10 км 3/0
[Ci fib]
+28.5 +11.1 34 +29 +32 жарко 1017.6 1000.0
18 14.06 В 2 10 км ясно +22.8 +12.7 53 +26 +26 жарко 1017.2 999.3 +28.9
21 14.06 ЮЗ 1 10 км ясно +21.4 +11.8 54 +23 +23 комфорт 1017.6 999.6
00 15.06 СЗ 1 10 км 3/0
[Ci fib]
+17.4 +14.6 84 +18 +18 тепло 1016.5 998.3
03 15.06 штиль 0 10 км 4/0
[Ci fib]
+18.2 +15.5 84 +18 +20 тепло 1016.1 998.0
06 15.06 З 1 10 км 3/0
[Ci fib]
+26.1 +13.8 47 +28 +39 жарко 1015.4 997.7 +16.2
09 15.06 ЮЗ 3 10 км 3/0
[Ci fib]
+30.1 +13.0 35 +31 +45 жарко 1014.2 996.8
12 15.06 З 4 10 км 4/3 1000 м
[Cu med, cong Ci fib]
+31.8 +12.5 31 +32 +39 жарко 1011.9 994.6
15 15.06 СЗ 4 10 км 8/4 1000 м
[Cu med, cong Ci]
+29.7 +15.3 42 +32 +34 душно 1011.8 994.4
18 15.06 В 3 10 км 8/3 1000 м
[Cb calv Ac trans Ci]
+23.8 +15.2 59 +27 +27 жарко 1012.3 994.6 +31.8
21 15.06 ЮВ 1 10 км 4/0
[Ci fib]
+19.2 +15.5 79 +22 +22 комфорт 1012.3 994.3
00 16.06 З 2 10 км 6/4 1000 м
[Sc Ac trans]
+19.8 +14.5 71 +22 +22 комфорт 1011.9 993.9
03 16.06 СЗ 2 10 км 5/0
[Ac trans]
+20.4 +14.8 70 +24 +24 комфорт 1011.2 993.3
06 16.06 СЗ 4 10 км 3/0
[Ac trans]
+25.3 +17.0 60 +29 +34 душно 1010.8 993.2 +18.0
09 16.06 СЗ 5 10 км 6/6 1000 м
[Cu med, cong]
+28.3 +15.5 46 +31 +35 душно 1010.7 993.3
12 16.06 СЗ 5 10 км 6/6 1000 м
[Cu med, cong]
+29.2 +12.2 35 +30 +33 жарко 1010.2 992.8
15 16.06 С 7 10 км 8/5 1000 м
[Cb calv Ci fib]
+25.3 +15.6 55 +28 +29 жарко 1011.4 993.8
18 16.06 СВ 4 10 км ясно +21.4 +15.2 68 +25 +25 комфорт 1013.0 995.1 +29.5
21 16.06 С 2 10 км ясно +19.2 +15.5 79 +21 +21 комфорт 1014.1 996.1
00 17.06 С 1 10 км ясно +17.4 +14.8 85 +18 +18 тепло 1015.0 996.8
03 17.06 С 1 10 км ясно +18.2 +15.7 85 +20 +21 тепло 1015.3 997.2
06 17.06 С 2 10 км 3/0
[Ci fib]
+23.3 +13.5 54 +27 +35 душно 1016.1 998.3 +16.2
09 17.06 С 2 10 км 6/6 1000 м
[Cu hum]
+26.0 +10.8 39 +27 +34 жарко 1015.6 997.9
12 17.06 С 3 10 км 8/8 1000 м
[Cu hum]
+26.6 +11.2 38 +28 +30 жарко 1014.9 997.3
15 17.06 СЗ 1 10 км 5/5 1000 м
[Cu hum]
+28.4 +11.2 34 +29 +31 жарко 1013.9 996.4
18 17.06 С 2 10 км 3/0
[Ac trans]
+24.4 +11.3 44 +26 +26 жарко 1014.7 996.9 +28.4
21 17.06 С 1 10 км ясно +21.2 +12.6 58 +23 +23 комфорт 1015.0 997.0
00 18.06 СЗ 1 10 км ясно +17.8 +13.0 73 +19 +19 тепло 1015.7 997.5
03 18.06 штиль 0 10 км 3/0
[Ci fib]
+18.8 +15.2 80 +20 +21 тепло 1015.7 997.6
06 18.06 штиль 0 10 км 3/0
[Ci fib]
+25.7 +14.7 51 +28 +40 жарко 1015.3 997.6 +16.8
09 18.06 З 2 10 км 3/3 1000 м
[Cu hum]
+28.8 +11.1 33 +29 +42 жарко 1014.3 996.8
12 18.06 З 3 10 км 6/5 1000 м
[Cu med, cong Ac trans]
+30.2 +12.2 33 +31 +36 жарко 1013.3 995.9
15 18.06 З 2 10 км слаб. ливневой дождь 8/8 1080 м
[Cb calv]
+27.5 +18.1 57 +32 +33 очень
душно
1012.5 995.0
18 18.06 З 2 10 км {гроза, ливн. осадки} 4/3 1000 м
[Sc diur, vesp Ci fib]
+26.4 +16.8 56 +30 +30 душно 1012.6 995.0 +30.9 0.7
21 18.06 СЗ 3 10 км ясно +23.9 +16.4 63 +27 +27 жарко 1013.5 995.8
00 19.06 З 1 10 км ясно +21.0 +15.8 72 +26 +26 душно 1013.6 995.7
03 19.06 С 4 10 км 3/0
[Ci fib]
+20.6 +16.5 77 +24 +25 комфорт 1013.6 995.7
06 19.06 С 4 10 км ясно +24.3 +17.1 64 +28 +34 душно 1013.8 996.1 +20.0
09 19.06 С 5 10 км 4/4 1000 м
[Cu hum]
+28.5 +15.1 44 +31 +37 душно 1013.7 996.2
12 19.06 СВ 6 10 км 6/6 1000 м
[Cu med, cong]
+29.0 +13.0 37 +30 +32 жарко 1013.4 995.9
15 19.06 СВ 5 10 км 4/4 1000 м
[Cu med, cong]
+27.8 +12.9 40 +29 +30 жарко 1013.2 995.7
18 19.06 С 3 10 км ясно +24.9 +13.1 48 +27 +27 жарко 1013.8 996.1 +29.9

 

Местоположение метеостанции Харьков (Харьковская область, Украина): широта 49.97 долгота 36.13 высота над уровнем моря 155 м.

В архиве по умолчанию представлена погода в Харькове за последнюю неделю. Архивные данные за месяц целиком и за предыдущие месяцы, начиная с января 2011 года, Вы можете получить, выбрав интересующий диапазон дат из раскрывающегося списка и нажав кнопку "Ввод!".


*Определитесь, кто Вы:
робот инопланетянин человек

Внимание! Время в таблицах - всемирное. Для получения местного времени необходимо прибавить поправку, которая равна 2 ч.

Смотрите также архив погоды в соседних городах и на ближайших метеорологических станциях:

Погода в Золочеве (Львовская область, Украина) (39 км)
Погода в Боходухове (Харьковская область, Украина) (50 км)
Погода в Комсомольском (Донецкая область, Украина) (50 км)
Погода в Коломаке (Харьковская область, Украина) (66 км)
Погода в Белгороде (Белгородская область, Россия) (80 км)
Погода в Краснограде (Харьковская область, Украина) (82 км)
Погода в Великом Бурлуке (Харьковская область, Украина) (90 км)
Погода в Готне (Белгородская область, Россия) (96 км)
Погода в Купянске (Харьковская область, Украина) (119 км)
Погода в Лозовой (Харьковская область, Украина) (120 км)

Пояснения к столбцам:

Ветер - указаны скорость ветра в м/с - средняя за 10 мин, порывы в срок и между сроками (в фигурных скобках) и направление, откуда дует ветер: С - северный, СВ - северо-восточный, В - восточный, ЮВ - юго-восточный, Ю - южный, ЮЗ - юго-западный, З - западный, СЗ - северо-западный.
Видимость - горизонтальная дальность видимости в метрах или километрах. При видимости от 1 до 10 км при отсутствии осадков обычно наблюдается дымка, при ухудшении видимости до 1 км и менее - туман. В сухую погоду видимость может ухудшаться дымом, пылью или мглою.
Явления - указаны атмосферные явления, наблюдавшиеся в срок или в последний час перед сроком; фигурными скобками обозначены явления, наблюдавшиеся между сроками (за 1-3 часа до срока); квадратными скобками обозначены град или гололедные отложения с указанием их диаметра в мм.
Облачность - указаны через наклонную черту общая и нижняя облачность в баллах и высота нижней границы облаков в метрах; квадратными скобками обозначены формы облаков: Ci - перистые, Cs - перисто-слоистые, Cc - перисто-кучевые, Ac - высококучевые, As - высокослоистые, Sc - слоисто-кучевые, Ns - слоисто-дождевые, Cu - кучевые, Cb - кучево-дождевые. Подробнее классификацию облаков см. в Атласе облаков (PDF).
T - Температура воздуха - температура, измеренная на высоте 2 м над землей.
Td - Температура точки росы - температура, при понижении до которой содержащийся в воздухе водяной пар достигнет насыщения.
f - Относительная влажность воздуха - влажноcть воздуха, измеренная на высоте 2 м над землей.
Te - Эффективная температура - температура, которую ощущает одетый по сезону человек в тени. Характеристика душности погоды. При расчете учитывается влияние влажности воздуха и скорости ветра на теплоощущения человека.
Tes - Эффективная температура на солнце - температура, которую ощущает человек, с поправкой на солнечный нагрев. Характеристика знойности погоды. Зависит от высоты солнца над горизонтом, облачности и скорости ветра. Ночью, в пасмурную погоду, а также при ветре 12 м/с и более поправка равна нулю.
P - Атмосферное давление - приведенное к уровню моря атмосферное давление.
Po - Атмосферное давление - измеренное на уровне метеостанции атмосферное давление.
Tmin - Минимальная температура - минимум температуры воздуха на высоте 2 м над землей.
Tmax - Максимальная температура - максимум температуры воздуха на высоте 2 м над землей.
R - Количество осадков - Количество выпавших осадков за период времени, мм. При наведении курсора мыши на число - период времени, за который выпало указанное количество осадков.
R24 - Количество осадков - Количество выпавших осадков за 24 часа, мм.
S - Снежный покров - Высота снежного покрова, см. При наведении курсора мыши на число - состояние снежного покрова и степень покрытия местности в баллах.